Time,TemperatureF,DewpointF,PressureIn,WindDirection,WindDirectionDegrees,WindSpeedMPH,WindSpeedGustMPH,Humidity,HourlyPrecipIn,Conditions,Clouds,dailyrainin,SoftwareType,DateUTC
2013-05-28 00:01:00,72.3,63.9,30.06,South,180,1.1,1.1,75,0.00,CLR,,0.00,WeatherDisplay:10.37,2013-05-28 05:01:00,
2013-05-28 00:06:00,71.8,63.0,30.06,South,180,1.1,1.1,74,0.00,CLR,,0.00,WeatherDisplay:10.37,2013-05-28 05:06:00,
2013-05-28 00:11:00,71.6,63.3,30.06,SSE,158,2.3,2.3,75,0.00,CLR,,0.00,WeatherDisplay:10.37,2013-05-28 05:11:00,
2013-05-28 00:16:00,71.4,63.5,30.06,SSE,158,2.3,2.3,76,0.00,CLR,,0.00,WeatherDisplay:10.37,2013-05-28 05:16:00,
2013-05-28 00:21:00,71.1,63.5,30.06,South,180,1.1,1.1,77,0.00,CLR,,0.00,WeatherDisplay:10.37,2013-05-28 05:21:00,
2013-05-28 00:26:00,70.9,63.3,30.06,South,180,1.6,1.6,77,0.00,CLR,,0.00,WeatherDisplay:10.37,2013-05-28 05:26:00,
2013-05-28 00:31:00,70.9,63.7,30.03,SSE,158,2.4,2.4,78,0.00,CLR,,0.00,WeatherDisplay:10.37,2013-05-28 05:31:00,
2013-05-28 00:36:00,70.7,63.5,30.03,South,180,2.3,2.3,78,0.00,CLR,,0.00,WeatherDisplay:10.37,2013-05-28 05:36:00,
2013-05-28 00:41:00,70.7,63.9,30.03,South,180,2.3,2.3,79,0.00,CLR,,0.00,WeatherDisplay:10.37,2013-05-28 05:41:00,
2013-05-28 00:46:00,70.7,63.9,30.03,South,180,0.9,0.0,79,0.00,CLR,,0.00,WeatherDisplay:10.37,2013-05-28 05:46:00,
2013-05-28 00:51:00,70.5,63.7,30.03,SE,135,2.3,2.3,79,0.00,CLR,,0.00,WeatherDisplay:10.37,2013-05-28 05:51:00,
2013-05-28 00:56:00,70.7,63.9,30.03,SE,135,2.3,2.3,79,0.00,CLR,,0.00,WeatherDisplay:10.37,2013-05-28 05:56:00,
2013-05-28 01:01:00,70.5,63.7,30.03,SSE,158,0.0,0.0,79,0.00,CLR,,0.00,WeatherDisplay:10.37,2013-05-28 06:01:00,
2013-05-28 01:06:00,70.5,63.7,30.03,South,180,2.3,2.3,79,0.00,CLR,,0.00,WeatherDisplay:10.37,2013-05-28 06:06:00,
2013-05-28 01:11:00,70.5,64.0,30.03,SSE,158,1.1,0.0,80,0.00,CLR,,0.00,WeatherDisplay:10.37,2013-05-28 06:11:00,
2013-05-28 01:16:00,70.5,64.0,30.03,SSE,158,1.1,1.4,80,0.00,CLR,,0.00,WeatherDisplay:10.37,2013-05-28 06:16:00,
2013-05-28 01:21:00,70.3,63.9,30.03,South,180,2.3,2.3,80,0.00,CLR,,0.00,WeatherDisplay:10.37,2013-05-28 06:21:00,
2013-05-28 01:26:00,70.2,63.7,30.03,East,90,3.5,3.5,80,0.00,CLR,,0.00,WeatherDisplay:10.37,2013-05-28 06:26:00,
2013-05-28 01:31:00,70.2,63.7,30.03,East,90,0.0,0.0,80,0.00,CLR,,0.00,WeatherDisplay:10.37,2013-05-28 06:31:00,
2013-05-28 01:36:00,70.2,63.7,30.03,SSE,158,1.1,0.0,80,0.00,CLR,,0.00,WeatherDisplay:10.37,2013-05-28 06:36:00,
2013-05-28 01:41:00,70.2,63.7,30.03,South,180,2.4,2.4,80,0.00,CLR,,0.00,WeatherDisplay:10.37,2013-05-28 06:41:00,
2013-05-28 01:46:00,70.2,64.1,30.03,South,180,2.3,2.4,81,0.00,CLR,,0.00,WeatherDisplay:10.37,2013-05-28 06:46:00,
2013-05-28 01:51:00,70.2,64.1,30.03,South,180,1.1,1.1,81,0.00,CLR,,0.00,WeatherDisplay:10.37,2013-05-28 06:51:00,
2013-05-28 01:56:00,70.0,63.5,30.03,SSE,158,1.1,1.4,80,0.00,CLR,,0.00,WeatherDisplay:10.37,2013-05-28 06:56:00,
2013-05-28 02:01:00,69.8,63.3,30.03,South,180,2.3,2.3,80,0.00,CLR,,0.00,WeatherDisplay:10.37,2013-05-28 07:01:00,
2013-05-28 02:06:00,69.4,63.4,30.03,South,180,2.3,2.3,81,0.00,CLR,,0.00,WeatherDisplay:10.37,2013-05-28 07:06:00,
2013-05-28 02:11:00,69.4,63.4,30.03,SE,135,2.4,2.4,81,0.00,CLR,,0.00,WeatherDisplay:10.37,2013-05-28 07:11:00,
2013-05-28 02:16:00,69.4,63.4,30.03,SSE,158,2.3,2.3,81,0.00,CLR,,0.00,WeatherDisplay:10.37,2013-05-28 07:16:00,
2013-05-28 02:22:00,69.3,63.2,30.03,SSE,158,2.3,2.3,81,0.00,CLR,,0.00,WeatherDisplay:10.37,2013-05-28 07:22:00,
2013-05-28 02:27:00,69.3,63.2,30.03,South,180,2.3,2.3,81,0.00,CLR,,0.00,WeatherDisplay:10.37,2013-05-28 07:27:00,
2013-05-28 02:32:00,69.3,63.2,30.03,SSE,158,2.0,2.0,81,0.00,CLR,,0.00,WeatherDisplay:10.37,2013-05-28 07:32:00,
2013-05-28 02:37:00,69.1,63.0,30.03,South,180,2.4,2.4,81,0.00,CLR,,0.00,WeatherDisplay:10.37,2013-05-28 07:37:00,
2013-05-28 02:42:00,69.1,63.4,30.03,SSE,158,3.5,3.5,82,0.00,CLR,,0.00,WeatherDisplay:10.37,2013-05-28 07:42:00,
2013-05-28 02:47:00,69.1,63.4,30.03,South,180,2.6,2.6,82,0.00,CLR,,0.00,WeatherDisplay:10.37,2013-05-28 07:47:00,
2013-05-28 02:52:00,69.1,63.4,30.03,SSE,158,2.3,2.3,82,0.00,CLR,,0.00,WeatherDisplay:10.37,2013-05-28 07:52:00,
2013-05-28 02:57:00,69.1,63.4,30.03,South,180,2.3,2.3,82,0.00,CLR,,0.00,WeatherDisplay:10.37,2013-05-28 07:57:00,
2013-05-28 03:02:00,69.1,63.4,30.03,SSE,158,3.1,3.1,82,0.00,CLR,,0.00,WeatherDisplay:10.37,2013-05-28 08:02:00,
2013-05-28 03:07:00,69.1,63.7,30.03,South,180,2.3,2.3,83,0.00,CLR,,0.00,WeatherDisplay:10.37,2013-05-28 08:07:00,
2013-05-28 03:12:00,69.1,63.7,30.03,SSE,158,2.3,2.3,83,0.00,CLR,,0.00,WeatherDisplay:10.37,2013-05-28 08:12:00,
2013-05-28 03:17:00,69.1,64.0,30.00,SSE,158,3.5,3.5,84,0.00,CLR,,0.00,WeatherDisplay:10.37,2013-05-28 08:17:00,
2013-05-28 03:22:00,69.3,64.2,30.00,SE,135,2.3,2.3,84,0.00,CLR,,0.00,WeatherDisplay:10.37,2013-05-28 08:22:00,
2013-05-28 03:27:00,69.3,64.2,30.00,South,180,2.4,2.4,84,0.00,CLR,,0.00,WeatherDisplay:10.37,2013-05-28 08:27:00,
2013-05-28 03:32:00,69.3,64.2,29.97,SSE,158,3.3,3.3,84,0.00,CLR,,0.00,WeatherDisplay:10.37,2013-05-28 08:32:00,
2013-05-28 03:37:00,69.3,64.2,29.97,South,180,2.3,2.6,84,0.00,CLR,,0.00,WeatherDisplay:10.37,2013-05-28 08:37:00,
2013-05-28 03:42:00,69.3,64.2,29.97,South,180,2.3,2.3,84,0.00,CLR,,0.00,WeatherDisplay:10.37,2013-05-28 08:42:00,
2013-05-28 03:47:00,69.3,64.2,29.97,SSW,202,2.3,2.3,84,0.00,CLR,,0.00,WeatherDisplay:10.37,2013-05-28 08:47:00,
2013-05-28 03:52:00,69.3,64.6,29.97,South,180,1.1,1.1,85,0.00,CLR,,0.00,WeatherDisplay:10.37,2013-05-28 08:52:00,
2013-05-28 03:57:00,69.3,64.6,29.97,South,180,2.3,2.3,85,0.00,CLR,,0.00,WeatherDisplay:10.37,2013-05-28 08:57:00,
2013-05-28 04:02:00,69.1,64.4,30.00,SSE,158,2.3,2.3,85,0.00,CLR,,0.00,WeatherDisplay:10.37,2013-05-28 09:02:00,
2013-05-28 04:07:00,69.1,64.4,30.00,South,180,2.0,2.0,85,0.00,CLR,,0.00,WeatherDisplay:10.37,2013-05-28 09:07:00,
2013-05-28 04:12:00,69.1,64.4,30.00,SE,135,1.1,1.6,85,0.00,CLR,,0.00,WeatherDisplay:10.37,2013-05-28 09:12:00,
2013-05-28 04:17:00,69.1,64.4,30.00,SE,135,1.1,1.4,85,0.00,CLR,,0.00,WeatherDisplay:10.37,2013-05-28 09:17:00,
2013-05-28 04:22:00,68.9,64.2,30.00,South,180,2.6,2.6,85,0.00,CLR,,0.00,WeatherDisplay:10.37,2013-05-28 09:22:00,
2013-05-28 04:27:00,68.9,64.2,30.00,ENE,68,2.4,2.4,85,0.00,CLR,,0.00,WeatherDisplay:10.37,2013-05-28 09:27:00,
2013-05-28 04:32:00,68.9,64.2,30.00,SSE,158,2.3,2.3,85,0.00,CLR,,0.00,WeatherDisplay:10.37,2013-05-28 09:32:00,
2013-05-28 04:37:00,68.7,64.0,30.00,SSE,158,1.1,1.4,85,0.00,CLR,,0.00,WeatherDisplay:10.37,2013-05-28 09:37:00,
2013-05-28 04:42:00,68.7,64.0,30.00,SSE,158,1.1,0.0,85,0.00,CLR,,0.00,WeatherDisplay:10.37,2013-05-28 09:42:00,
2013-05-28 04:47:00,68.5,63.8,29.97,SE,135,1.4,1.4,85,0.00,CLR,,0.00,WeatherDisplay:10.37,2013-05-28 09:47:00,
2013-05-28 04:52:00,68.5,63.8,29.97,SE,135,2.3,2.3,85,0.00,CLR,,0.00,WeatherDisplay:10.37,2013-05-28 09:52:00,
2013-05-28 04:57:00,68.4,63.7,29.97,SSE,158,1.1,1.1,85,0.00,CLR,,0.00,WeatherDisplay:10.37,2013-05-28 09:57:00,
2013-05-28 05:02:00,68.4,63.7,30.00,SE,135,2.3,2.3,85,0.00,CLR,,0.00,WeatherDisplay:10.37,2013-05-28 10:02:00,
2013-05-28 05:07:00,68.4,64.0,30.00,ENE,68,2.3,2.3,86,0.00,CLR,,0.00,WeatherDisplay:10.37,2013-05-28 10:07:00,
2013-05-28 05:12:00,68.4,64.0,30.00,SE,135,2.3,2.3,86,0.00,CLR,,0.00,WeatherDisplay:10.37,2013-05-28 10:12:00,
2013-05-28 05:17:00,68.0,63.7,30.00,NE,45,0.0,0.0,86,0.00,CLR,,0.00,WeatherDisplay:10.37,2013-05-28 10:17:00,
2013-05-28 05:22:00,68.0,63.3,30.00,NE,45,0.0,0.0,85,0.00,CLR,,0.00,WeatherDisplay:10.37,2013-05-28 10:22:00,
2013-05-28 05:27:00,67.6,63.3,30.00,NE,45,0.0,0.0,86,0.00,CLR,,0.00,WeatherDisplay:10.37,2013-05-28 10:27:00,
2013-05-28 05:32:00,67.5,63.1,30.00,NE,45,0.0,0.0,86,0.00,CLR,,0.00,WeatherDisplay:10.37,2013-05-28 10:32:00,
2013-05-28 05:37:00,67.3,62.9,30.00,NE,45,1.1,0.0,86,0.00,CLR,,0.00,WeatherDisplay:10.37,2013-05-28 10:37:00,
2013-05-28 05:42:00,67.1,62.8,30.00,NNW,338,2.0,0.0,86,0.00,CLR,,0.00,WeatherDisplay:10.37,2013-05-28 10:42:00,
2013-05-28 05:47:00,66.9,62.6,30.00,NNW,338,0.0,0.0,86,0.00,CLR,,0.00,WeatherDisplay:10.37,2013-05-28 10:47:00,
2013-05-28 05:52:00,66.9,62.9,30.00,NNW,338,0.0,0.0,87,0.00,CLR,,0.00,WeatherDisplay:10.37,2013-05-28 10:52:00,
2013-05-28 05:57:00,66.9,62.9,30.00,SSE,158,1.1,0.0,87,0.00,CLR,,0.00,WeatherDisplay:10.37,2013-05-28 10:57:00,
2013-05-28 06:02:00,66.7,62.4,30.00,SSE,158,0.9,0.0,86,0.00,CLR,,0.00,WeatherDisplay:10.37,2013-05-28 11:02:00,
2013-05-28 06:07:00,66.6,62.2,30.00,SSE,158,0.0,0.0,86,0.00,CLR,,0.00,WeatherDisplay:10.37,2013-05-28 11:07:00,
2013-05-28 06:12:00,66.6,62.2,30.00,WNW,292,1.6,1.6,86,0.00,CLR,,0.00,WeatherDisplay:10.37,2013-05-28 11:12:00,
2013-05-28 06:17:00,66.6,62.6,30.00,West,270,1.1,0.0,87,0.00,CLR,,0.00,WeatherDisplay:10.37,2013-05-28 11:17:00,
2013-05-28 06:22:00,66.7,62.7,30.00,West,270,1.1,0.0,87,0.00,CLR,,0.00,WeatherDisplay:10.37,2013-05-28 11:22:00,
2013-05-28 06:27:00,67.1,63.4,30.00,West,270,2.0,2.0,88,0.00,CLR,,0.00,WeatherDisplay:10.37,2013-05-28 11:27:00,
2013-05-28 06:32:00,67.6,64.3,30.03,NNE,22,2.3,2.3,89,0.00,CLR,,0.00,WeatherDisplay:10.37,2013-05-28 11:32:00,
2013-05-28 06:37:00,68.0,64.3,30.03,North,0,1.1,1.4,88,0.00,CLR,,0.00,WeatherDisplay:10.37,2013-05-28 11:37:00,
2013-05-28 06:42:00,68.2,64.5,30.03,North,0,2.4,2.4,88,0.00,CLR,,0.00,WeatherDisplay:10.37,2013-05-28 11:42:00,
2013-05-28 06:47:00,68.5,64.8,30.03,North,0,2.3,2.3,88,0.00,CLR,,0.00,WeatherDisplay:10.37,2013-05-28 11:47:00,
2013-05-28 06:52:00,69.1,65.4,30.03,North,0,1.6,1.6,88,0.00,CLR,,0.00,WeatherDisplay:10.37,2013-05-28 11:52:00,
2013-05-28 06:57:00,70.3,66.6,30.03,North,0,1.1,1.1,88,0.00,CLR,,0.00,WeatherDisplay:10.37,2013-05-28 11:57:00,
2013-05-28 07:02:00,72.3,68.2,30.00,South,180,2.0,2.0,87,0.00,CLR,,0.00,WeatherDisplay:10.37,2013-05-28 12:02:00,
2013-05-28 07:07:00,74.7,69.8,30.00,ESE,112,2.3,2.3,85,0.00,CLR,,0.00,WeatherDisplay:10.37,2013-05-28 12:07:00,
2013-05-28 07:12:00,74.5,69.3,30.00,SSE,158,2.4,2.4,84,0.00,CLR,,0.00,WeatherDisplay:10.37,2013-05-28 12:12:00,
2013-05-28 07:17:00,76.6,69.3,30.03,WSW,248,0.0,0.0,78,0.00,CLR,,0.00,WeatherDisplay:10.37,2013-05-28 12:17:00,
2013-05-28 07:22:00,78.6,70.0,30.03,South,180,2.3,2.3,75,0.00,CLR,,0.00,WeatherDisplay:10.37,2013-05-28 12:22:00,
2013-05-28 07:27:00,79.7,69.9,30.03,SSE,158,2.6,2.6,72,0.00,CLR,,0.00,WeatherDisplay:10.37,2013-05-28 12:27:00,
2013-05-28 07:32:00,81.5,69.5,30.00,SSE,158,4.6,4.6,67,0.00,CLR,,0.00,WeatherDisplay:10.37,2013-05-28 12:32:00,
2013-05-28 07:37:00,82.6,68.2,30.00,SSE,158,2.3,2.3,62,0.00,CLR,,0.00,WeatherDisplay:10.37,2013-05-28 12:37:00,
2013-05-28 07:43:00,83.8,67.5,30.00,South,180,3.5,3.5,58,0.00,CLR,,0.00,WeatherDisplay:10.37,2013-05-28 12:43:00,
2013-05-28 07:48:00,84.9,65.3,30.00,SSE,158,3.6,3.6,52,0.00,CLR,,0.00,WeatherDisplay:10.37,2013-05-28 12:48:00,
2013-05-28 07:53:00,86.0,64.6,30.00,South,180,4.3,4.3,49,0.00,CLR,,0.00,WeatherDisplay:10.37,2013-05-28 12:53:00,
2013-05-28 07:58:00,87.1,63.8,30.00,SSE,158,3.5,3.5,46,0.00,CLR,,0.00,WeatherDisplay:10.37,2013-05-28 12:58:00,
2013-05-28 08:03:00,87.6,64.3,30.00,SE,135,4.6,4.6,46,0.00,CLR,,0.00,WeatherDisplay:10.37,2013-05-28 13:03:00,
2013-05-28 08:08:00,88.7,61.3,30.00,ESE,112,5.8,5.8,40,0.00,CLR,,0.00,WeatherDisplay:10.37,2013-05-28 13:08:00,
2013-05-28 08:13:00,88.5,59.7,30.00,SE,135,4.6,4.6,38,0.00,CLR,,0.00,WeatherDisplay:10.37,2013-05-28 13:13:00,
2013-05-28 08:18:00,89.4,59.7,30.03,SSE,158,5.8,5.8,37,0.00,CLR,,0.00,WeatherDisplay:10.37,2013-05-28 13:18:00,
2013-05-28 08:23:00,89.8,58.5,30.03,South,180,5.9,5.9,35,0.00,CLR,,0.00,WeatherDisplay:10.37,2013-05-28 13:23:00,
2013-05-28 08:28:00,89.6,57.5,30.03,SSE,158,5.8,5.8,34,0.00,CLR,,0.00,WeatherDisplay:10.37,2013-05-28 13:28:00,
2013-05-28 08:33:00,89.8,56.8,30.00,SSE,158,5.8,5.8,33,0.00,CLR,,0.00,WeatherDisplay:10.37,2013-05-28 13:33:00,
2013-05-28 08:38:00,90.5,57.5,30.00,SSE,158,4.6,4.7,33,0.00,CLR,,0.00,WeatherDisplay:10.37,2013-05-28 13:38:00,
2013-05-28 08:43:00,91.4,57.4,30.00,SE,135,4.6,4.6,32,0.00,CLR,,0.00,WeatherDisplay:10.37,2013-05-28 13:43:00,
2013-05-28 08:48:00,91.8,56.8,30.00,South,180,4.6,4.6,31,0.00,CLR,,0.00,WeatherDisplay:10.37,2013-05-28 13:48:00,
2013-05-28 08:53:00,92.3,57.3,30.00,SSE,158,4.6,4.6,31,0.00,CLR,,0.00,WeatherDisplay:10.37,2013-05-28 13:53:00,
2013-05-28 08:58:00,93.0,57.0,30.00,NNE,22,6.9,6.9,30,0.00,CLR,,0.00,WeatherDisplay:10.37,2013-05-28 13:58:00,
2013-05-28 09:03:00,93.4,56.4,30.00,SSE,158,6.7,6.7,29,0.00,CLR,,0.00,WeatherDisplay:10.37,2013-05-28 14:03:00,
2013-05-28 09:08:00,93.7,56.7,30.00,South,180,5.6,5.6,29,0.00,CLR,,0.00,WeatherDisplay:10.37,2013-05-28 14:08:00,
2013-05-28 09:13:00,94.8,56.6,30.00,South,180,8.1,8.1,28,0.00,CLR,,0.00,WeatherDisplay:10.37,2013-05-28 14:13:00,
2013-05-28 09:18:00,93.7,54.7,30.00,ESE,112,8.1,8.1,27,0.00,CLR,,0.00,WeatherDisplay:10.37,2013-05-28 14:18:00,
2013-05-28 09:23:00,92.3,55.4,30.00,South,180,5.8,6.4,29,0.00,CLR,,0.00,WeatherDisplay:10.37,2013-05-28 14:23:00,
2013-05-28 09:28:00,90.1,53.6,30.00,SSE,158,9.2,9.2,29,0.00,CLR,,0.00,WeatherDisplay:10.37,2013-05-28 14:28:00,
2013-05-28 09:33:00,89.1,53.6,30.00,SSE,158,9.2,9.2,30,0.00,CLR,,0.00,WeatherDisplay:10.37,2013-05-28 14:33:00,
2013-05-28 09:38:00,88.3,53.0,30.00,SSE,158,12.7,12.7,30,0.00,CLR,,0.00,WeatherDisplay:10.37,2013-05-28 14:38:00,
2013-05-28 09:43:00,89.8,55.1,30.00,SSE,158,9.2,9.2,31,0.00,CLR,,0.00,WeatherDisplay:10.37,2013-05-28 14:43:00,
2013-05-28 09:48:00,90.3,56.5,30.00,SSE,158,8.1,8.1,32,0.00,CLR,,0.00,WeatherDisplay:10.37,2013-05-28 14:48:00,
2013-05-28 09:53:00,90.0,55.3,30.00,SSW,202,9.2,9.2,31,0.00,CLR,,0.00,WeatherDisplay:10.37,2013-05-28 14:53:00,
2013-05-28 09:58:00,88.9,54.3,30.00,SSE,158,10.4,10.4,31,0.00,CLR,,0.00,WeatherDisplay:10.37,2013-05-28 14:58:00,
2013-05-28 10:03:00,88.0,53.6,30.00,SSE,158,10.4,10.4,31,0.00,CLR,,0.00,WeatherDisplay:10.37,2013-05-28 15:03:00,
2013-05-28 10:08:00,88.5,55.7,30.00,SSE,158,10.4,10.4,33,0.00,CLR,,0.00,WeatherDisplay:10.37,2013-05-28 15:08:00,
2013-05-28 10:13:00,87.8,54.3,30.00,South,180,10.4,10.4,32,0.00,CLR,,0.00,WeatherDisplay:10.37,2013-05-28 15:13:00,
2013-05-28 10:18:00,87.1,53.6,30.00,South,180,10.5,10.5,32,0.00,CLR,,0.00,WeatherDisplay:10.37,2013-05-28 15:18:00,
2013-05-28 10:23:00,86.7,55.0,30.00,South,180,5.8,6.7,34,0.00,CLR,,0.00,WeatherDisplay:10.37,2013-05-28 15:23:00,
2013-05-28 10:28:00,86.9,55.2,30.03,SSE,158,10.4,10.4,34,0.00,CLR,,0.00,WeatherDisplay:10.37,2013-05-28 15:28:00,
2013-05-28 10:33:00,86.9,55.2,30.03,South,180,7.6,7.6,34,0.00,CLR,,0.00,WeatherDisplay:10.37,2013-05-28 15:33:00,
2013-05-28 10:38:00,86.5,55.6,30.03,ESE,112,8.1,8.1,35,0.00,CLR,,0.00,WeatherDisplay:10.37,2013-05-28 15:38:00,
2013-05-28 10:43:00,86.2,55.3,30.00,South,180,9.2,9.2,35,0.00,CLR,,0.00,WeatherDisplay:10.37,2013-05-28 15:43:00,
2013-05-28 10:48:00,86.0,55.2,30.00,SSE,158,6.9,6.9,35,0.00,CLR,,0.00,WeatherDisplay:10.37,2013-05-28 15:48:00,
2013-05-28 10:53:00,88.9,60.0,30.00,SSE,158,5.8,5.8,38,0.00,CLR,,0.00,WeatherDisplay:10.37,2013-05-28 15:53:00,
2013-05-28 10:58:00,91.6,60.9,30.03,SSE,158,4.6,4.6,36,0.00,CLR,,0.00,WeatherDisplay:10.37,2013-05-28 15:58:00,
2013-05-28 11:03:00,91.9,58.7,30.03,South,180,4.6,4.6,33,0.00,CLR,,0.00,WeatherDisplay:10.37,2013-05-28 16:03:00,
2013-05-28 11:08:00,90.1,55.4,30.03,SSE,158,4.6,4.6,31,0.00,CLR,,0.00,WeatherDisplay:10.37,2013-05-28 16:08:00,
2013-05-28 11:13:00,90.5,57.5,30.03,SE,135,4.6,4.6,33,0.00,CLR,,0.00,WeatherDisplay:10.37,2013-05-28 16:13:00,
2013-05-28 11:18:00,90.3,55.6,30.03,SE,135,6.9,6.9,31,0.00,CLR,,0.00,WeatherDisplay:10.37,2013-05-28 16:18:00,
2013-05-28 11:23:00,89.2,54.6,30.03,SSE,158,7.4,7.4,31,0.00,CLR,,0.00,WeatherDisplay:10.37,2013-05-28 16:23:00,
2013-05-28 11:28:00,88.9,55.2,30.00,NE,45,6.9,6.9,32,0.00,CLR,,0.00,WeatherDisplay:10.37,2013-05-28 16:28:00,
2013-05-28 11:33:00,90.9,56.9,30.00,South,180,6.9,6.9,32,0.00,CLR,,0.00,WeatherDisplay:10.37,2013-05-28 16:33:00,
2013-05-28 11:38:00,91.8,56.8,30.00,SE,135,8.1,8.1,31,0.00,CLR,,0.00,WeatherDisplay:10.37,2013-05-28 16:38:00,
2013-05-28 11:43:00,91.9,56.1,30.00,SSE,158,8.1,8.1,30,0.00,CLR,,0.00,WeatherDisplay:10.37,2013-05-28 16:43:00,
2013-05-28 11:48:00,91.9,55.1,30.00,NNE,22,3.5,3.5,29,0.00,CLR,,0.00,WeatherDisplay:10.37,2013-05-28 16:48:00,
2013-05-28 11:53:00,90.7,54.1,30.00,South,180,4.6,4.6,29,0.00,CLR,,0.00,WeatherDisplay:10.37,2013-05-28 16:53:00,
2013-05-28 11:58:00,90.7,55.9,30.00,North,0,6.9,6.9,31,0.00,CLR,,0.00,WeatherDisplay:10.37,2013-05-28 16:58:00,
2013-05-28 12:03:00,89.6,54.1,30.00,South,180,3.5,3.5,30,0.00,CLR,,0.00,WeatherDisplay:10.37,2013-05-28 17:03:00,
2013-05-28 12:08:00,87.6,53.2,30.00,SSE,158,8.1,8.1,31,0.00,CLR,,0.00,WeatherDisplay:10.37,2013-05-28 17:08:00,
2013-05-28 12:13:00,89.2,56.4,30.00,SSE,158,6.9,6.9,33,0.00,CLR,,0.00,WeatherDisplay:10.37,2013-05-28 17:13:00,
2013-05-28 12:18:00,90.9,57.8,30.00,South,180,8.1,8.1,33,0.00,CLR,,0.00,WeatherDisplay:10.37,2013-05-28 17:18:00,
2013-05-28 12:23:00,91.2,56.4,30.00,SSE,158,6.0,6.0,31,0.00,CLR,,0.00,WeatherDisplay:10.37,2013-05-28 17:23:00,
2013-05-28 12:28:00,91.0,57.1,30.00,South,180,5.8,5.8,32,0.00,CLR,,0.00,WeatherDisplay:10.37,2013-05-28 17:28:00,
2013-05-28 12:33:00,92.1,57.1,30.00,South,180,7.8,7.8,31,0.00,CLR,,0.00,WeatherDisplay:10.37,2013-05-28 17:33:00,
2013-05-28 12:38:00,92.3,56.4,30.00,South,180,8.1,8.1,30,0.00,CLR,,0.00,WeatherDisplay:10.37,2013-05-28 17:38:00,
2013-05-28 12:43:00,90.9,55.1,30.00,SSW,202,8.5,8.5,30,0.00,CLR,,0.00,WeatherDisplay:10.37,2013-05-28 17:43:00,
2013-05-28 12:48:00,90.7,54.1,30.00,South,180,10.4,10.4,29,0.00,CLR,,0.00,WeatherDisplay:10.37,2013-05-28 17:48:00,
2013-05-28 12:53:00,90.1,54.5,30.00,SSE,158,8.1,8.1,30,0.00,CLR,,0.00,WeatherDisplay:10.37,2013-05-28 17:53:00,
2013-05-28 12:58:00,89.6,54.1,30.00,SSE,158,5.8,5.8,30,0.00,CLR,,0.00,WeatherDisplay:10.37,2013-05-28 17:58:00,
2013-05-28 13:03:00,88.3,53.0,30.00,SSW,202,5.9,5.9,30,0.00,CLR,,0.00,WeatherDisplay:10.37,2013-05-28 18:03:00,
2013-05-28 13:08:00,88.0,53.6,30.00,SSE,158,7.1,7.1,31,0.00,CLR,,0.00,WeatherDisplay:10.37,2013-05-28 18:08:00,
2013-05-28 13:13:00,90.0,57.0,30.00,South,180,6.9,6.9,33,0.00,CLR,,0.00,WeatherDisplay:10.37,2013-05-28 18:13:00,
2013-05-28 13:18:00,91.0,57.1,30.00,South,180,8.1,8.1,32,0.00,CLR,,0.00,WeatherDisplay:10.37,2013-05-28 18:18:00,
2013-05-28 13:23:00,90.9,55.1,30.00,South,180,8.1,8.1,30,0.00,CLR,,0.00,WeatherDisplay:10.37,2013-05-28 18:23:00,
2013-05-28 13:28:00,89.8,54.2,29.97,SE,135,5.8,5.8,30,0.00,CLR,,0.00,WeatherDisplay:10.37,2013-05-28 18:28:00,
2013-05-28 13:33:00,89.2,54.6,29.97,SSE,158,5.6,5.6,31,0.00,CLR,,0.00,WeatherDisplay:10.37,2013-05-28 18:33:00,
2013-05-28 13:38:00,88.9,55.2,29.97,SE,135,5.8,5.8,32,0.00,CLR,,0.00,WeatherDisplay:10.37,2013-05-28 18:38:00,
2013-05-28 13:44:00,89.2,55.5,29.97,SSE,158,6.9,6.9,32,0.00,CLR,,0.00,WeatherDisplay:10.37,2013-05-28 18:44:00,
2013-05-28 13:49:00,88.0,53.6,29.97,SSE,158,5.8,5.8,31,0.00,CLR,,0.00,WeatherDisplay:10.37,2013-05-28 18:49:00,
2013-05-28 13:54:00,87.1,53.6,29.97,SE,135,5.8,5.8,32,0.00,CLR,,0.00,WeatherDisplay:10.37,2013-05-28 18:54:00,
2013-05-28 13:59:00,87.1,54.5,29.97,South,180,9.2,9.2,33,0.00,CLR,,0.00,WeatherDisplay:10.37,2013-05-28 18:59:00,
2013-05-28 14:04:00,88.3,56.4,29.97,ESE,112,6.0,6.0,34,0.00,CLR,,0.00,WeatherDisplay:10.37,2013-05-28 19:04:00,
2013-05-28 14:09:00,88.7,55.9,29.97,South,180,5.8,5.8,33,0.00,CLR,,0.00,WeatherDisplay:10.37,2013-05-28 19:09:00,
2013-05-28 14:14:00,88.7,55.9,29.97,SSE,158,5.8,5.8,33,0.00,CLR,,0.00,WeatherDisplay:10.37,2013-05-28 19:14:00,
2013-05-28 14:19:00,88.2,54.6,29.97,South,180,9.2,9.2,32,0.00,CLR,,0.00,WeatherDisplay:10.37,2013-05-28 19:19:00,
2013-05-28 14:24:00,87.3,53.8,29.97,South,180,6.9,6.9,32,0.00,CLR,,0.00,WeatherDisplay:10.37,2013-05-28 19:24:00,
2013-05-28 14:29:00,86.7,53.3,29.97,SSE,158,6.9,6.9,32,0.00,CLR,,0.00,WeatherDisplay:10.37,2013-05-28 19:29:00,
2013-05-28 14:34:00,86.5,54.0,29.97,South,180,4.6,4.6,33,0.00,CLR,,0.00,WeatherDisplay:10.37,2013-05-28 19:34:00,
2013-05-28 14:39:00,87.1,55.3,29.97,SE,135,10.0,10.0,34,0.00,CLR,,0.00,WeatherDisplay:10.37,2013-05-28 19:39:00,
2013-05-28 14:44:00,87.1,55.3,29.97,SE,135,9.7,9.7,34,0.00,CLR,,0.00,WeatherDisplay:10.37,2013-05-28 19:44:00,
2013-05-28 14:49:00,87.4,55.6,29.97,South,180,10.4,10.4,34,0.00,CLR,,0.00,WeatherDisplay:10.37,2013-05-28 19:49:00,
2013-05-28 14:54:00,88.0,56.1,29.97,SE,135,9.2,9.2,34,0.00,CLR,,0.00,WeatherDisplay:10.37,2013-05-28 19:54:00,
2013-05-28 14:59:00,88.0,55.3,29.94,SSE,158,10.4,10.4,33,0.00,CLR,,0.00,WeatherDisplay:10.37,2013-05-28 19:59:00,
2013-05-28 15:04:00,87.6,54.1,29.94,SSE,158,6.2,6.2,32,0.00,CLR,,0.00,WeatherDisplay:10.37,2013-05-28 20:04:00,
2013-05-28 15:09:00,87.3,53.8,29.94,SE,135,10.4,10.4,32,0.00,CLR,,0.00,WeatherDisplay:10.37,2013-05-28 20:09:00,
2013-05-28 15:14:00,87.1,54.5,29.97,South,180,6.9,6.9,33,0.00,CLR,,0.00,WeatherDisplay:10.37,2013-05-28 20:14:00,
2013-05-28 15:19:00,86.9,54.3,29.97,SE,135,5.8,5.8,33,0.00,CLR,,0.00,WeatherDisplay:10.37,2013-05-28 20:19:00,
2013-05-28 15:24:00,86.5,53.2,29.97,South,180,6.9,6.9,32,0.00,CLR,,0.00,WeatherDisplay:10.37,2013-05-28 20:24:00,
2013-05-28 15:29:00,86.9,55.2,29.97,SE,135,10.4,10.4,34,0.00,CLR,,0.00,WeatherDisplay:10.37,2013-05-28 20:29:00,
2013-05-28 15:34:00,87.1,55.3,29.97,SSE,158,9.2,9.2,34,0.00,CLR,,0.00,WeatherDisplay:10.37,2013-05-28 20:34:00,
2013-05-28 15:39:00,86.7,55.0,29.97,ESE,112,10.4,10.4,34,0.00,CLR,,0.00,WeatherDisplay:10.37,2013-05-28 20:39:00,
2013-05-28 15:44:00,87.3,55.5,29.97,SSE,158,6.9,6.9,34,0.00,CLR,,0.00,WeatherDisplay:10.37,2013-05-28 20:44:00,
2013-05-28 15:49:00,87.8,55.1,29.97,SSE,158,9.2,9.2,33,0.00,CLR,,0.00,WeatherDisplay:10.37,2013-05-28 20:49:00,
2013-05-28 15:54:00,88.2,55.4,29.97,SSE,158,11.5,11.5,33,0.00,CLR,,0.00,WeatherDisplay:10.37,2013-05-28 20:54:00,
2013-05-28 15:59:00,86.9,53.5,29.97,ESE,112,4.6,4.6,32,0.00,CLR,,0.00,WeatherDisplay:10.37,2013-05-28 20:59:00,
2013-05-28 16:04:00,86.2,53.7,29.97,SSE,158,12.7,12.7,33,0.00,CLR,,0.00,WeatherDisplay:10.37,2013-05-28 21:04:00,
2013-05-28 16:09:00,85.8,54.2,29.97,ESE,112,5.8,5.8,34,0.00,CLR,,0.00,WeatherDisplay:10.37,2013-05-28 21:09:00,
2013-05-28 16:14:00,86.5,55.6,29.97,SSW,202,9.2,9.2,35,0.00,CLR,,0.00,WeatherDisplay:10.37,2013-05-28 21:14:00,
2013-05-28 16:19:00,87.3,56.3,29.97,SSE,158,5.9,5.9,35,0.00,CLR,,0.00,WeatherDisplay:10.37,2013-05-28 21:19:00,
2013-05-28 16:24:00,87.3,53.8,29.97,SSE,158,11.5,11.5,32,0.00,CLR,,0.00,WeatherDisplay:10.37,2013-05-28 21:24:00,
2013-05-28 16:29:00,87.1,54.5,29.94,ESE,112,9.4,9.4,33,0.00,CLR,,0.00,WeatherDisplay:10.37,2013-05-28 21:29:00,
2013-05-28 16:34:00,87.1,54.5,29.94,ESE,112,9.2,9.2,33,0.00,CLR,,0.00,WeatherDisplay:10.37,2013-05-28 21:34:00,
2013-05-28 16:39:00,86.4,53.9,29.94,SE,135,8.1,8.1,33,0.00,CLR,,0.00,WeatherDisplay:10.37,2013-05-28 21:39:00,
2013-05-28 16:45:00,85.8,53.4,29.94,ESE,112,6.9,6.9,33,0.00,CLR,,0.00,WeatherDisplay:10.37,2013-05-28 21:45:00,
2013-05-28 16:50:00,86.0,54.4,29.94,East,90,8.1,8.1,34,0.00,CLR,,0.00,WeatherDisplay:10.37,2013-05-28 21:50:00,
2013-05-28 16:55:00,85.8,53.4,29.94,ESE,112,8.1,8.1,33,0.00,CLR,,0.00,WeatherDisplay:10.37,2013-05-28 21:55:00,
2013-05-28 17:00:00,85.6,54.0,29.94,SSE,158,6.9,6.9,34,0.00,CLR,,0.00,WeatherDisplay:10.37,2013-05-28 22:00:00,
2013-05-28 17:05:00,85.3,53.7,29.94,SSE,158,8.5,8.5,34,0.00,CLR,,0.00,WeatherDisplay:10.37,2013-05-28 22:05:00,
2013-05-28 17:10:00,85.1,53.6,29.94,SSW,202,6.9,6.9,34,0.00,CLR,,0.00,WeatherDisplay:10.37,2013-05-28 22:10:00,
2013-05-28 17:15:00,84.7,53.3,29.94,SSW,202,6.9,6.9,34,0.00,CLR,,0.00,WeatherDisplay:10.37,2013-05-28 22:15:00,
2013-05-28 17:20:00,84.6,53.9,29.94,NW,315,6.9,6.9,35,0.00,CLR,,0.00,WeatherDisplay:10.37,2013-05-28 22:20:00,
2013-05-28 17:25:00,84.4,54.5,29.94,ESE,112,5.9,5.9,36,0.00,CLR,,0.00,WeatherDisplay:10.37,2013-05-28 22:25:00,
2013-05-28 17:30:00,84.2,54.4,29.94,ESE,112,5.8,5.9,36,0.00,CLR,,0.00,WeatherDisplay:10.37,2013-05-28 22:30:00,
2013-05-28 17:35:00,84.2,54.4,29.94,South,180,6.9,6.9,36,0.00,CLR,,0.00,WeatherDisplay:10.37,2013-05-28 22:35:00,
2013-05-28 17:40:00,83.8,54.0,29.94,South,180,6.9,6.9,36,0.00,CLR,,0.00,WeatherDisplay:10.37,2013-05-28 22:40:00,
2013-05-28 17:45:00,84.0,54.9,29.94,SE,135,11.5,11.5,37,0.00,CLR,,0.00,WeatherDisplay:10.37,2013-05-28 22:45:00,
2013-05-28 17:50:00,83.8,54.8,29.94,ESE,112,4.6,4.6,37,0.00,CLR,,0.00,WeatherDisplay:10.37,2013-05-28 22:50:00,
2013-05-28 17:55:00,83.5,53.7,29.94,SSE,158,12.7,12.7,36,0.00,CLR,,0.00,WeatherDisplay:10.37,2013-05-28 22:55:00,
2013-05-28 18:00:00,83.3,54.3,29.94,South,180,9.2,9.2,37,0.00,CLR,,0.00,WeatherDisplay:10.37,2013-05-28 23:00:00,
2013-05-28 18:05:00,83.3,53.6,29.94,SSE,158,11.5,11.5,36,0.00,CLR,,0.00,WeatherDisplay:10.37,2013-05-28 23:05:00,
2013-05-28 18:10:00,83.1,54.1,29.94,SSW,202,8.1,8.1,37,0.00,CLR,,0.00,WeatherDisplay:10.37,2013-05-28 23:10:00,
2013-05-28 18:15:00,82.8,53.1,29.94,SSE,158,5.8,5.8,36,0.00,CLR,,0.00,WeatherDisplay:10.37,2013-05-28 23:15:00,
2013-05-28 18:20:00,82.6,52.9,29.94,SSE,158,8.1,8.1,36,0.00,CLR,,0.00,WeatherDisplay:10.37,2013-05-28 23:20:00,
2013-05-28 18:25:00,82.2,54.1,29.94,SSE,158,6.2,6.2,38,0.00,CLR,,0.00,WeatherDisplay:10.37,2013-05-28 23:25:00,
2013-05-28 18:30:00,82.0,53.9,29.97,South,180,5.8,5.8,38,0.00,CLR,,0.00,WeatherDisplay:10.37,2013-05-28 23:30:00,
2013-05-28 18:35:00,81.9,53.8,29.97,East,90,4.6,4.6,38,0.00,CLR,,0.00,WeatherDisplay:10.37,2013-05-28 23:35:00,
2013-05-28 18:40:00,81.5,54.2,29.97,ENE,68,6.9,6.9,39,0.00,CLR,,0.00,WeatherDisplay:10.37,2013-05-28 23:40:00,
2013-05-28 18:45:00,81.3,54.0,29.94,South,180,8.1,8.1,39,0.00,CLR,,0.00,WeatherDisplay:10.37,2013-05-28 23:45:00,
2013-05-28 18:50:00,81.0,53.7,29.94,SSE,158,5.8,5.8,39,0.00,CLR,,0.00,WeatherDisplay:10.37,2013-05-28 23:50:00,
2013-05-28 18:55:00,80.6,52.6,29.94,ESE,112,5.8,5.8,38,0.00,CLR,,0.00,WeatherDisplay:10.37,2013-05-28 23:55:00,
2013-05-28 19:00:00,80.4,53.2,29.94,ESE,112,8.1,8.1,39,0.00,CLR,,0.00,WeatherDisplay:10.37,2013-05-29 00:00:00,
2013-05-28 19:05:00,80.1,53.6,29.94,South,180,4.6,4.6,40,0.00,CLR,,0.00,WeatherDisplay:10.37,2013-05-29 00:05:00,
2013-05-28 19:10:00,79.9,52.7,29.94,South,180,6.9,6.9,39,0.00,CLR,,0.00,WeatherDisplay:10.37,2013-05-29 00:10:00,
2013-05-28 19:15:00,79.5,52.4,29.94,ESE,112,4.6,4.6,39,0.00,CLR,,0.00,WeatherDisplay:10.37,2013-05-29 00:15:00,
2013-05-28 19:20:00,79.3,52.9,29.94,South,180,4.6,4.6,40,0.00,CLR,,0.00,WeatherDisplay:10.37,2013-05-29 00:20:00,
2013-05-28 19:25:00,79.2,52.8,29.94,NNE,22,2.3,2.6,40,0.00,CLR,,0.00,WeatherDisplay:10.37,2013-05-29 00:25:00,
2013-05-28 19:30:00,79.0,52.6,29.97,South,180,5.8,5.8,40,0.00,CLR,,0.00,WeatherDisplay:10.37,2013-05-29 00:30:00,
2013-05-28 19:35:00,78.6,52.9,29.97,South,180,6.9,6.9,41,0.00,CLR,,0.00,WeatherDisplay:10.37,2013-05-29 00:35:00,
2013-05-28 19:40:00,78.4,52.8,29.97,South,180,4.6,4.6,41,0.00,CLR,,0.00,WeatherDisplay:10.37,2013-05-29 00:40:00,
2013-05-28 19:45:00,78.3,52.6,29.94,South,180,3.5,3.5,41,0.00,CLR,,0.00,WeatherDisplay:10.37,2013-05-29 00:45:00,
2013-05-28 19:50:00,77.9,52.3,29.94,South,180,3.5,3.5,41,0.00,CLR,,0.00,WeatherDisplay:10.37,2013-05-29 00:50:00,
2013-05-28 19:55:00,77.5,52.0,29.94,SSE,158,3.5,3.5,41,0.00,CLR,,0.00,WeatherDisplay:10.37,2013-05-29 00:55:00,
2013-05-28 20:00:00,77.4,51.8,29.97,SE,135,2.0,2.0,41,0.00,CLR,,0.00,WeatherDisplay:10.37,2013-05-29 01:00:00,
2013-05-28 20:05:00,77.0,52.1,29.97,SSE,158,3.5,3.5,42,0.00,CLR,,0.00,WeatherDisplay:10.37,2013-05-29 01:05:00,
2013-05-28 20:10:00,76.6,52.5,29.97,South,180,2.4,2.4,43,0.00,CLR,,0.00,WeatherDisplay:10.37,2013-05-29 01:10:00,
2013-05-28 20:15:00,76.3,52.1,29.97,SE,135,1.6,1.6,43,0.00,CLR,,0.00,WeatherDisplay:10.37,2013-05-29 01:15:00,
2013-05-28 20:20:00,76.1,52.6,29.97,SSE,158,3.5,3.5,44,0.00,CLR,,0.00,WeatherDisplay:10.37,2013-05-29 01:20:00,
2013-05-28 20:25:00,75.7,52.9,29.97,South,180,2.3,2.3,45,0.00,CLR,,0.00,WeatherDisplay:10.37,2013-05-29 01:25:00,
2013-05-28 20:30:00,75.6,52.7,29.97,ESE,112,2.0,0.0,45,0.00,CLR,,0.00,WeatherDisplay:10.37,2013-05-29 01:30:00,
2013-05-28 20:35:00,75.2,53.0,29.97,SSE,158,2.3,2.3,46,0.00,CLR,,0.00,WeatherDisplay:10.37,2013-05-29 01:35:00,
2013-05-28 20:40:00,75.0,53.4,29.97,ESE,112,2.6,2.6,47,0.00,CLR,,0.00,WeatherDisplay:10.37,2013-05-29 01:40:00,
2013-05-28 20:45:00,74.8,53.3,29.97,WNW,292,2.3,2.3,47,0.00,CLR,,0.00,WeatherDisplay:10.37,2013-05-29 01:45:00,
2013-05-28 20:50:00,74.7,53.7,29.97,ESE,112,1.6,1.6,48,0.00,CLR,,0.00,WeatherDisplay:10.37,2013-05-29 01:50:00,
2013-05-28 20:55:00,74.3,53.3,29.97,SSE,158,2.3,2.3,48,0.00,CLR,,0.00,WeatherDisplay:10.37,2013-05-29 01:55:00,
2013-05-28 21:00:00,74.3,53.9,29.97,SSE,158,1.1,1.1,49,0.00,CLR,,0.00,WeatherDisplay:10.37,2013-05-29 02:00:00,
2013-05-28 21:05:00,73.9,54.1,29.97,SSE,158,0.0,0.0,50,0.00,CLR,,0.00,WeatherDisplay:10.37,2013-05-29 02:05:00,
2013-05-28 21:10:00,73.6,53.8,29.97,NE,45,2.3,2.3,50,0.00,CLR,,0.00,WeatherDisplay:10.37,2013-05-29 02:10:00,
2013-05-28 21:15:00,73.4,54.2,29.97,North,0,1.1,0.0,51,0.00,CLR,,0.00,WeatherDisplay:10.37,2013-05-29 02:15:00,
2013-05-28 21:20:00,73.2,54.0,29.97,NE,45,0.0,0.0,51,0.00,CLR,,0.00,WeatherDisplay:10.37,2013-05-29 02:20:00,
2013-05-28 21:25:00,73.0,54.4,29.97,East,90,2.4,2.4,52,0.00,CLR,,0.00,WeatherDisplay:10.37,2013-05-29 02:25:00,
2013-05-28 21:30:00,72.9,54.7,29.97,NW,315,1.1,1.1,53,0.00,CLR,,0.00,WeatherDisplay:10.37,2013-05-29 02:30:00,
2013-05-28 21:35:00,72.5,54.9,29.97,South,180,3.3,3.3,54,0.00,CLR,,0.00,WeatherDisplay:10.37,2013-05-29 02:35:00,
2013-05-28 21:40:00,72.3,55.2,29.97,NE,45,1.1,1.1,55,0.00,CLR,,0.00,WeatherDisplay:10.37,2013-05-29 02:40:00,
2013-05-28 21:45:00,72.1,55.6,29.97,ESE,112,2.2,2.2,56,0.00,CLR,,0.00,WeatherDisplay:10.37,2013-05-29 02:45:00,
2013-05-28 21:50:00,72.0,55.4,29.97,NNE,22,1.1,1.1,56,0.00,CLR,,0.00,WeatherDisplay:10.37,2013-05-29 02:50:00,
2013-05-28 21:55:00,71.8,55.7,29.97,NE,45,2.3,0.0,57,0.00,CLR,,0.00,WeatherDisplay:10.37,2013-05-29 02:55:00,
2013-05-28 22:00:00,71.4,55.9,29.97,South,180,2.3,0.0,58,0.00,CLR,,0.00,WeatherDisplay:10.37,2013-05-29 03:00:00,
2013-05-28 22:05:00,71.2,56.2,29.97,NE,45,1.1,0.0,59,0.00,CLR,,0.00,WeatherDisplay:10.37,2013-05-29 03:05:00,
2013-05-28 22:10:00,71.1,56.9,29.97,East,90,1.6,0.0,61,0.00,CLR,,0.00,WeatherDisplay:10.37,2013-05-29 03:10:00,
2013-05-28 22:15:00,70.7,57.0,29.97,South,180,2.3,2.3,62,0.00,CLR,,0.00,WeatherDisplay:10.37,2013-05-29 03:15:00,
2013-05-28 22:21:00,70.3,57.1,29.97,NE,45,1.1,0.0,63,0.00,CLR,,0.00,WeatherDisplay:10.37,2013-05-29 03:21:00,
2013-05-28 22:26:00,70.2,57.8,29.97,West,270,1.1,1.1,65,0.00,CLR,,0.00,WeatherDisplay:10.37,2013-05-29 03:26:00,
2013-05-28 22:31:00,70.0,57.7,29.97,ESE,112,2.6,2.6,65,0.00,CLR,,0.00,WeatherDisplay:10.37,2013-05-29 03:31:00,
2013-05-28 22:36:00,69.8,57.9,29.97,ESE,112,2.4,2.4,66,0.00,CLR,,0.00,WeatherDisplay:10.37,2013-05-29 03:36:00,
2013-05-28 22:41:00,69.6,58.6,29.97,East,90,2.3,2.3,68,0.00,CLR,,0.00,WeatherDisplay:10.37,2013-05-29 03:41:00,
2013-05-28 22:46:00,69.4,58.4,29.97,ENE,68,0.0,0.0,68,0.00,CLR,,0.00,WeatherDisplay:10.37,2013-05-29 03:46:00,
2013-05-28 22:51:00,69.4,58.8,29.97,SSE,158,1.1,0.0,69,0.00,CLR,,0.00,WeatherDisplay:10.37,2013-05-29 03:51:00,
2013-05-28 22:56:00,69.1,58.5,29.97,South,180,2.4,2.4,69,0.00,CLR,,0.00,WeatherDisplay:10.37,2013-05-29 03:56:00,
2013-05-28 23:01:00,68.7,57.7,29.97,East,90,2.3,2.3,68,0.00,CLR,,0.00,WeatherDisplay:10.37,2013-05-29 04:01:00,
2013-05-28 23:06:00,68.4,58.2,29.97,East,90,2.3,2.3,70,0.00,CLR,,0.00,WeatherDisplay:10.37,2013-05-29 04:06:00,
2013-05-28 23:11:00,68.2,58.4,29.97,NE,45,1.1,0.0,71,0.00,CLR,,0.00,WeatherDisplay:10.37,2013-05-29 04:11:00,
2013-05-28 23:16:00,68.2,58.4,29.97,NE,45,1.6,0.0,71,0.00,CLR,,0.00,WeatherDisplay:10.37,2013-05-29 04:16:00,
2013-05-28 23:21:00,68.2,58.8,29.97,SSW,202,2.3,0.0,72,0.00,CLR,,0.00,WeatherDisplay:10.37,2013-05-29 04:21:00,
2013-05-28 23:26:00,68.2,58.8,29.97,SE,135,2.3,2.3,72,0.00,CLR,,0.00,WeatherDisplay:10.37,2013-05-29 04:26:00,
2013-05-28 23:31:00,68.0,58.6,29.97,North,0,1.1,1.1,72,0.00,CLR,,0.00,WeatherDisplay:10.37,2013-05-29 04:31:00,
2013-05-28 23:36:00,68.0,59.0,29.97,SSW,202,1.1,0.0,73,0.00,CLR,,0.00,WeatherDisplay:10.37,2013-05-29 04:36:00,
2013-05-28 23:41:00,68.0,59.4,29.97,North,0,2.3,2.3,74,0.00,CLR,,0.00,WeatherDisplay:10.37,2013-05-29 04:41:00,
2013-05-28 23:46:00,68.2,60.0,30.00,ESE,112,1.1,0.0,75,0.00,CLR,,0.00,WeatherDisplay:10.37,2013-05-29 04:46:00,
2013-05-28 23:51:00,68.2,60.0,30.00,North,0,2.3,2.3,75,0.00,CLR,,0.00,WeatherDisplay:10.37,2013-05-29 04:51:00,
2013-05-28 23:56:00,68.2,60.0,30.00,South,180,1.1,1.1,75,0.00,CLR,,0.00,WeatherDisplay:10.37,2013-05-29 04:56:00,